Regional Weather Roundup
Issued by NWS

Home | Current Version | Previous Version | Text Only | Print | Product List | Glossary Off
Versions: 1 2 3 4 5 6 7 8 9 10 11 12 13 14 15 16 17 18 19 20 21 22 23 24 25 26 27 28 29 30 31 32 33 34 35 36 37 38 39 40 41 42 43 44 45 46 47 48 49 50

000
ASUS43 KMPX 200010
RWRMN
WEATHER ROUNDUP FOR MINNESOTA
NATIONAL WEATHER SERVICE TWIN CITIES/CHANHASSEN MN
700 PM CDT THU OCT 19 2017


NOTE: "FAIR" INDICATES FEW OR NO CLOUDS BELOW 12,000 FEET WITH NO
SIGNIFICANT WEATHER AND/OR OBSTRUCTIONS TO VISIBILITY. N/A MEANS
CURRENT SKY AND/OR WEATHER CONDITIONS ARE NOT AVAILABLE.

MNZ060>063-068>070-200100-
   Twin Cities Metro

CITY           SKY/WX    TMP DP  RH WIND       PRES   REMARKS
TWIN CITIES    PTCLDY    68  38  33 S10       29.95S
6HR MIN TEMP:  67; 6HR MAX TEMP:  74;

ST PAUL        CLEAR     63  38  39 SE7       29.96S
CRYSTAL        CLEAR     63  35  35 S7        29.93S
BLAINE         PTCLDY    63  37  39 S8        29.94S
LAKEVILLE      CLEAR     63  39  42 S5        29.96S
EDEN PRAIRIE   CLEAR     66  38  35 S10       29.93F
6HR MIN TEMP:  65; 6HR MAX TEMP:  74;

SOUTH ST PAUL  CLEAR     65  35  32 S8        29.96R
LAKE ELMO      FAIR      63  37  39 S10       29.97S
$$
MNZ001>005-007-008-013>017-022>024-027-028-200100-
   Northwest Minnesota

CITY           SKY/WX    TMP DP  RH WIND       PRES   REMARKS
BEMIDJI        CLEAR     60  38  43 S6        29.82S
HALLOCK        CLEAR     61  36  39 S9        29.70R
ROSEAU         CLEAR     57  41  54 S7        29.74S
WARROAD        CLEAR     61  41  48 S3        29.75S
THIEF RVR FALL CLEAR     62  39  42 S7        29.76S
CROOKSTON      CLEAR     64  37  36 SW12      29.75S
FOSSTON        CLEAR     57  37  47 S9        29.79F
DETROIT LAKES  CLEAR     63  41  45 S8        29.83S
MOORHEAD       CLEAR     66  43  42 S7        29.78S
PARK RAPIDS    CLEAR     61  39  44 SE8       29.84S
MAHNOMEN       FAIR      61  41  47 S5        29.80S
$$
MNZ006-009>011-018-025>026-200100-
   North Central Minnesota

CITY           SKY/WX    TMP DP  RH WIND       PRES   REMARKS
BAUDETTE       CLEAR     60  39  45 S6        29.77R
FLAG ISLAND    CLEAR     54  45  71 S7        29.73S
INTL FALLS     CLEAR     54  35  48 SE6       29.80S
6HR MIN TEMP:  54; 6HR MAX TEMP:  67;

WASKISH        CLEAR     64  39  39 S3        29.80S
BIG FORK       CLEAR     57  36  44 S6        29.84S
LONGVILLE      CLEAR     61  36  39 SE7       29.86S
GRAND RAPIDS   CLEAR     60  36  40 S8        29.88S
CRANE LAKE     CLEAR     48  39  71 CALM      29.86R
ORR            CLEAR     57  30  35 SE5       29.83R
COOK           CLEAR     61  34  36 S5        29.87R
WALKER         FAIR      64  37  36 S7        29.83F
$$
MNZ012-019>021-037-200100-
   Northeast Minnesota

CITY           SKY/WX    TMP DP  RH WIND       PRES   REMARKS
DULUTH         CLOUDY    59  34  39 S10       29.91S
6HR MIN TEMP:  59; 6HR MAX TEMP:  67;

ELY            CLOUDY    59  30  33 S5        29.89R
HIBBING        CLEAR     60  32  34 S3        29.88R
EVELETH        CLEAR     53  27  36 CALM      29.90R
DULUTH HARBOR  CLOUDY    64  37  36 S10       29.91S
TWO HARBORS    CLEAR     57  39  51 CALM      29.89S
SILVER BAY     CLOUDY    52  37  58 CALM      29.89S
GRAND MARAIS     N/A     49  37  63 CALM      29.92S
G MARAIS ARPRT CLOUDY    52  27  37 S5        29.93S
$$
MNZ029>031-032-039>041-046>048-054>057-064-200100-
   West Central Minnesota

CITY           SKY/WX    TMP DP  RH WIND       PRES   REMARKS
FERGUS FALLS   CLEAR     63  45  51 SE8       29.81S
WHEATON        CLEAR     68  43  40 S9        29.81F
MORRIS         CLEAR     63  46  55 S9        29.82F
ALEXANDRIA     CLOUDY    64  44  48 S12       29.86S
ELBOW LAKE     FAIR      58  47  64 S9        29.83S
WADENA         CLEAR     61  41  48 SE6       29.85R
GLENWOOD       CLEAR     63  45  51 SE9       29.86F
APPLETON       CLEAR     70  45  40 S8        29.83R
BENSON         CLEAR     64  45  48 SW9       29.85S
ORTONVILLE     CLEAR     63  46  55 N6        29.82S
MADISON        CLEAR     70  46  43 S8        29.84R
WILLMAR        FAIR      66  45  45 S7        29.89R
$$
MNZ033>034-036-042>043-049>051-058-059-200100-
   Central Minnesota

CITY           SKY/WX    TMP DP  RH WIND       PRES   REMARKS
ST CLOUD       CLEAR     62  39  42 S9        29.90F
6HR MIN TEMP:  62; 6HR MAX TEMP:  71;

SAUK CENTRE    FAIR      61  43  52 SE9       29.87F
PAYNESVILLE    CLEAR     65  42  42 S10       29.89S
AITKIN         CLEAR     59  36  41 S5        29.88S
PINE RIVER     CLEAR     57  37  47 SE6       29.90S
BRAINERD       CLEAR     60  36  40 S6        29.88S
STAPLES        CLOUDY    63  36  36 SE3       29.86S
LONG PRAIRIE   FAIR      61  41  48 SE8       29.87F
LITTLE FALLS     N/A    N/A N/A N/A SE6         N/A
LITCHFIELD     CLEAR     66  43  42 S5        29.90S
BUFFALO        CLEAR     62  37  38 SE5       29.93S
MAPLE LAKE     CLEAR     65  40  41 SE5       29.92S
HUTCHINSON     CLEAR     63  43  48 CALM      29.92S
$$
MNZ037-044-045-052-053-200100-
   East Central Minnesota

CITY           SKY/WX    TMP DP  RH WIND       PRES   REMARKS
PRINCETON      CLEAR     63  37  39 SE6       29.91F
MORA           CLEAR     63  34  34 S5        29.93S
CAMBRIDGE      CLEAR     64  43  45 SE6       29.93S
RUSH CITY      MOCLDY    63  35  35 S5        29.93S
MOOSE LAKE     PTCLDY    61  34  36 CALM      29.89F
HINCKLEY       FAIR      61  37  41 S5        29.93R
CLOQUET        PTCLDY    63  28  27 S5        29.91S
MCGREGOR       CLOUDY    61  36  39 S5        29.90S
$$
MNZ071>073-080-081-089-090-097-098-200100-
   Southwest Minnesota

CITY           SKY/WX    TMP DP  RH WIND       PRES   REMARKS
MONTEVIDEO     CLEAR     68  45  42 S9        29.85S
GRANITE FALLS  CLEAR     68  47  47 SE13      29.87S
CANBY          CLEAR     70  47  43 S12       29.84S
MARSHALL       CLEAR     67  47  48 S14       29.86F
REDWOOD FALLS  CLEAR     65  43  44 SE10      29.88F
OLIVIA         CLEAR     64  43  45 S9        29.88S
PIPESTONE      CLEAR     64  46  52 S10       29.90S
WORTHINGTON    CLEAR     65  46  50 S9        29.94S
JACKSON        CLEAR     63  43  48 S10       29.96S
TRACY          CLEAR     69  48  47 S13G20    29.89S
SLAYTON        CLEAR     63  47  55 SE8       29.92S
$$
MNZ065>067-074>077-082>085-091>093-200100-
   South Central Minnesota

CITY           SKY/WX    TMP DP  RH WIND       PRES   REMARKS
MANKATO        CLEAR     65  41  41 S12       29.95F
NEW ULM        CLEAR     64  41  42 S13       29.92S
ST JAMES       CLEAR     64  45  48 SE10      29.94F
FAIRMONT       CLEAR     61  45  55 S12       29.96S
GLENCOE        CLEAR     64  39  40 SE7       29.92S
FARIBAULT      CLEAR     63  37  39 SE9       29.98S
OWATONNA       CLEAR     63  39  42 S9        29.98S
WASECA         CLEAR     59  37  44 SE7       29.99S
$$
MNZ078>079-086>088-094>096-200100-
   Southeast Minnesota

CITY           SKY/WX    TMP DP  RH WIND       PRES   REMARKS
ROCHESTER      CLEAR     61  37  41 S14       30.01F
6HR MIN TEMP:  61; 6HR MAX TEMP:  71;

RED WING       CLEAR     66  30  26 SE5       29.98R
STANTON        CLEAR     63  36  36 S6        29.96F
DODGE CENTER   CLEAR     61  36  39 S10       30.01R
WINONA         CLEAR     57  37  47 CALM      30.03S
AUSTIN         CLEAR     61  36  39 S7        30.01S
PRESTON        CLEAR     59  35  40 S7        30.04S
$$
ABBREVIATIONS USED IN REMARKS
   TC - TEMPERATURES IN CELSIUS
  WCI - WIND CHILL INDEX
   HX - HEAT INDEX
  VSB - VISIBILITY
$$




USA.gov is the U.S. government's official web portal to all federal, state and local government web resources and services.